When you browse on this site, cookies collect data to enhance your experience and personalize the content and advertising you see.
Visit our Privacy Policy to learn more. By continuing to use the site, you agree to this use of cookies and data.
  • In Romania
  • List of Countries
  • For 7 days
  • Water Temperature
  • Satellite Maps
  • Weather Map
  • Weather Widgets
  • user-avatar
    Login

    Hourly Weather Metenevka

    Today, 27 March, Wednesday

    Time Temperature Precipitation Wind Pressure Humidity
    00:00 -5°C° 0 mm 2 mps 737 mmHg 91%
    01:00 -5°C° 0 mm 2 mps 737 mmHg 90%
    02:00 -6°C° 0 mm 2 mps 738 mmHg 89%
    03:00 -7°C° 0 mm 2 mps 738 mmHg 88%
    04:00 -7°C° 0 mm 2 mps 738 mmHg 87%
    05:00 -7°C° 0 mm 2 mps 738 mmHg 87%
    06:00 -7°C° 0 mm 2 mps 738 mmHg 86%
    07:00 -6°C° 0 mm 2 mps 739 mmHg 86%
    08:00 -4°C° 0 mm 1 mps 739 mmHg 87%
    09:00 -3°C° 0 mm 1 mps 740 mmHg 87%
    10:00 -2°C° 0 mm 1 mps 740 mmHg 88%
    11:00 -1°C° 0 mm 1 mps 741 mmHg 89%
    12:00 0°C° 0 mm 1 mps 741 mmHg 91%
    13:00 +1°C° 0 mm 1 mps 741 mmHg 94%
    14:00 +1°C° 0 mm 1 mps 741 mmHg 97%
    15:00 +1°C° 0 mm 1 mps 742 mmHg 99%
    16:00 -2°C° 0 mm 2 mps 742 mmHg 96%
    17:00 -2°C° 0 mm 2 mps 742 mmHg 94%
    18:00 -3°C° 0 mm 2 mps 742 mmHg 91%
    19:00 -4°C° 0 mm 2 mps 742 mmHg 89%
    20:00 -5°C° 0 mm 2 mps 743 mmHg 88%
    21:00 -5°C° 0 mm 2 mps 743 mmHg 86%
    22:00 -7°C° 0 mm 3 mps 743 mmHg 86%
    23:00 -7°C° 0 mm 3 mps 743 mmHg 87%

    Tomorrow, 28 March, Thursday

    Time Temperature Precipitation Wind Pressure Humidity
    00:00 -8°C° 0 mm 3 mps 743 mmHg 87%
    01:00 -8°C° 0 mm 3 mps 744 mmHg 89%
    02:00 -8°C° 0 mm 3 mps 744 mmHg 91%
    03:00 -9°C° 0 mm 3 mps 744 mmHg 92%
    04:00 -8°C° 0 mm 3 mps 744 mmHg 93%
    05:00 -8°C° 0 mm 3 mps 744 mmHg 94%
    06:00 -8°C° 0 mm 3 mps 744 mmHg 95%
    07:00 -8°C° 0 mm 4 mps 745 mmHg 94%
    08:00 -7°C° 0 mm 4 mps 745 mmHg 94%
    09:00 -6°C° 0 mm 5 mps 745 mmHg 93%
    10:00 -5°C° 0.1 mm 5 mps 746 mmHg 91%
    11:00 -4°C° 0.1 mm 5 mps 746 mmHg 89%
    12:00 -4°C° 0.1 mm 5 mps 746 mmHg 87%
    13:00 -2°C° 0.1 mm 5 mps 746 mmHg 88%
    14:00 -2°C° 0.1 mm 5 mps 746 mmHg 88%
    15:00 -2°C° 0.1 mm 5 mps 746 mmHg 89%
    16:00 -4°C° 0.1 mm 5 mps 747 mmHg 89%
    17:00 -3°C° 0.1 mm 4 mps 747 mmHg 89%
    18:00 -4°C° 0.1 mm 4 mps 747 mmHg 88%
    19:00 -5°C° 0 mm 4 mps 747 mmHg 89%
    20:00 -6°C° 0 mm 3 mps 747 mmHg 89%
    21:00 -7°C° 0 mm 3 mps 748 mmHg 89%
    22:00 -7°C° 0 mm 3 mps 748 mmHg 89%
    23:00 -7°C° 0 mm 2 mps 748 mmHg 88%

    Day after tomorrow, 29 March, Friday

    Time Temperature Precipitation Wind Pressure Humidity
    00:00 -7°C° 0 mm 2 mps 748 mmHg 88%
    01:00 -7°C° 0 mm 2 mps 748 mmHg 88%
    02:00 -7°C° 0 mm 2 mps 748 mmHg 88%
    03:00 -7°C° 0 mm 2 mps 748 mmHg 88%
    04:00 -7°C° 0 mm 2 mps 747 mmHg 87%
    05:00 -7°C° 0 mm 2 mps 747 mmHg 86%
    06:00 -7°C° 0 mm 2 mps 747 mmHg 85%
    07:00 -7°C° 0 mm 3 mps 747 mmHg 86%
    08:00 -6°C° 0 mm 3 mps 747 mmHg 86%
    09:00 -4°C° 0 mm 3 mps 747 mmHg 86%
    10:00 -4°C° 0.1 mm 3 mps 746 mmHg 91%
    11:00 -2°C° 0.1 mm 3 mps 746 mmHg 95%
    12:00 -1°C° 0.1 mm 3 mps 746 mmHg 99%
    13:00 -1°C° 0.1 mm 3 mps 746 mmHg 99%
    14:00 -1°C° 0.1 mm 3 mps 745 mmHg 99%
    15:00 0°C° 0.1 mm 3 mps 745 mmHg 100%
    16:00 0°C° 0 mm 3 mps 744 mmHg 99%
    17:00 0°C° 0 mm 3 mps 744 mmHg 99%
    18:00 +1°C° 0 mm 2 mps 744 mmHg 99%
    19:00 -1°C° 0 mm 2 mps 744 mmHg 99%
    20:00 -1°C° 0 mm 2 mps 744 mmHg 98%
    21:00 -1°C° 0 mm 2 mps 744 mmHg 98%
    22:00 -1°C° 0 mm 2 mps 743 mmHg 97%
    23:00 -1°C° 0 mm 2 mps 743 mmHg 95%

    30 March, Saturday

    Time Temperature Precipitation Wind Pressure Humidity
    00:00 -1°C° 0 mm 2 mps 743 mmHg 94%
    01:00 -2°C° 0 mm 3 mps 742 mmHg 93%
    02:00 -2°C° 0 mm 3 mps 742 mmHg 92%
    03:00 -2°C° 0 mm 3 mps 742 mmHg 91%
    04:00 -2°C° 0 mm 3 mps 742 mmHg 92%
    05:00 -2°C° 0 mm 3 mps 741 mmHg 93%
    06:00 -2°C° 0 mm 3 mps 741 mmHg 94%
    07:00 -1°C° 0 mm 3 mps 741 mmHg 96%
    08:00 -2°C° 0 mm 4 mps 741 mmHg 98%
    09:00 -1°C° 0 mm 4 mps 740 mmHg 99%
    10:00 -1°C° 0 mm 4 mps 740 mmHg 99%
    11:00 -1°C° 0 mm 4 mps 740 mmHg 99%
    12:00 0°C° 0 mm 4 mps 740 mmHg 99%
    13:00 0°C° 0 mm 4 mps 740 mmHg 99%
    14:00 0°C° 0 mm 4 mps 740 mmHg 99%
    15:00 0°C° 0 mm 4 mps 739 mmHg 99%
    16:00 +1°C° 0 mm 3 mps 739 mmHg 99%
    17:00 +1°C° 0 mm 3 mps 740 mmHg 99%
    18:00 +2°C° 0 mm 2 mps 740 mmHg 99%
    19:00 +2°C° 0 mm 2 mps 740 mmHg 99%
    20:00 +1°C° 0 mm 2 mps 740 mmHg 98%
    21:00 +1°C° 0 mm 2 mps 741 mmHg 98%
    22:00 +1°C° 0 mm 2 mps 741 mmHg 97%
    23:00 +1°C° 0 mm 2 mps 741 mmHg 96%

    31 March, Sunday

    Time Temperature Precipitation Wind Pressure Humidity
    00:00 0°C° 0 mm 3 mps 741 mmHg 95%
    01:00 0°C° 0 mm 3 mps 741 mmHg 93%
    02:00 0°C° 0 mm 3 mps 741 mmHg 92%
    03:00 0°C° 0 mm 3 mps 742 mmHg 90%
    04:00 -1°C° 0 mm 3 mps 742 mmHg 91%
    05:00 -1°C° 0 mm 2 mps 742 mmHg 91%
    06:00 -1°C° 0 mm 2 mps 742 mmHg 91%
    07:00 +1°C° 0 mm 2 mps 742 mmHg 94%
    08:00 +1°C° 0 mm 2 mps 743 mmHg 97%
    09:00 +1°C° 0 mm 2 mps 743 mmHg 99%
    10:00 +1°C° 0 mm 2 mps 743 mmHg 100%
    11:00 +2°C° 0 mm 2 mps 743 mmHg 100%
    12:00 +1°C° 0 mm 3 mps 743 mmHg 100%
    13:00 +1°C° 0 mm 3 mps 742 mmHg 99%
    14:00 +1°C° 0 mm 3 mps 742 mmHg 99%
    15:00 0°C° 0 mm 4 mps 742 mmHg 99%
    16:00 0°C° 0 mm 4 mps 742 mmHg 99%
    17:00 0°C° 0 mm 4 mps 742 mmHg 99%
    18:00 0°C° 0 mm 4 mps 741 mmHg 99%
    19:00 0°C° 0 mm 4 mps 742 mmHg 99%
    20:00 0°C° 0 mm 4 mps 742 mmHg 99%
    21:00 0°C° 0 mm 4 mps 742 mmHg 98%
    22:00 -1°C° 0 mm 4 mps 742 mmHg 98%
    23:00 0°C° 0 mm 3 mps 742 mmHg 97%

    1 April, Monday

    Time Temperature Precipitation Wind Pressure Humidity
    00:00 0°C° 0 mm 3 mps 742 mmHg 96%
    01:00 0°C° 0 mm 3 mps 742 mmHg 93%
    02:00 0°C° 0 mm 3 mps 742 mmHg 89%
    03:00 +1°C° 0 mm 3 mps 742 mmHg 86%
    04:00 +1°C° 0 mm 3 mps 741 mmHg 85%
    05:00 +1°C° 0 mm 3 mps 741 mmHg 85%
    06:00 +1°C° 0 mm 3 mps 741 mmHg 85%
    07:00 0°C° 0 mm 4 mps 741 mmHg 88%
    08:00 0°C° 0 mm 4 mps 741 mmHg 91%
    09:00 +1°C° 0 mm 4 mps 741 mmHg 94%
    10:00 +3°C° 0 mm 4 mps 741 mmHg 94%
    11:00 +3°C° 0 mm 4 mps 741 mmHg 94%
    12:00 +3°C° 0 mm 5 mps 741 mmHg 93%
    13:00 +5°C° 0 mm 4 mps 740 mmHg 91%
    14:00 +6°C° 0 mm 4 mps 740 mmHg 89%
    15:00 +7°C° 0 mm 4 mps 740 mmHg 87%
    16:00 +7°C° 0 mm 3 mps 740 mmHg 88%
    17:00 +5°C° 0 mm 3 mps 740 mmHg 88%
    18:00 +4°C° 0 mm 3 mps 740 mmHg 89%
    19:00 +4°C° 0 mm 3 mps 740 mmHg 88%
    20:00 +4°C° 0 mm 3 mps 741 mmHg 87%
    21:00 +4°C° 0 mm 2 mps 741 mmHg 86%
    22:00 +3°C° 0 mm 3 mps 741 mmHg 85%
    23:00 +2°C° 0 mm 3 mps 742 mmHg 84%
    Show more